Regional Weather Roundup
Issued by NWS

Home | Current Version | Previous Version | Text Only | Print | Product List | Glossary On
Versions: 1 2 3 4 5 6 7 8 9 10 11 12 13 14 15 16 17 18 19 20 21 22 23 24 25 26 27 28 29 30 31 32 33 34 35 36 37 38 39 40 41 42 43 44 45 46 47 48 49 50
000
ASUS43 KLSX 280459
RWRMO

WEATHER SUMMARY FOR MISSOURI
NATIONAL WEATHER SERVICE SPRINGFIELD MO
1200 AM CDT THU AUG 28 2014

NOTE: "FAIR" INDICATES FEW OR NO CLOUDS BELOW 12,000 FEET WITH NO
       SIGNIFICANT WEATHER AND/OR OBSTRUCTIONS TO VISIBILITY.
       CURRENT SKY AND/OR WEATHER CONDITIONS ARE NOT AVAILABLE FOR
       CHILLICOTHE AND FARMINGTON.

MOZ001>031-035>038-043-044-053-054-280600-
...NORTHERN AND WESTERN MISSOURI...

CITY           SKY/WX    TMP DP  RH WIND       PRES   REMARKS
KANSAS CTY INT CLOUDY    77  71  82 E7        30.04F
KANSAS C DTWN  CLOUDY    80  72  76 E8        30.02F
LEE`S SUMMIT   MOCLDY    77  72  84 E6        30.05S
ST JOSEPH      MOCLDY    74  70  87 E6        30.04S
KIRKSVILLE     MOCLDY    72  70  93 NE5       30.09S

$$
MOZ066>068-077>081-088>096-101>105-280600-
...SOUTHWEST MISSOURI...

CITY           SKY/WX    TMP DP  RH WIND       PRES   REMARKS
SPRINGFIELD    PTCLDY    78  68  71 S8        30.05F
JOPLIN         CLEAR     78  68  71 SE6       30.03F

$$
MOZ032>034-039>042-045>050-055>058-069>072-280600-
...CENTRAL MISSOURI...

CITY           SKY/WX    TMP DP  RH WIND       PRES   REMARKS
COLUMBIA       PTCLDY    71  68  90 SE7       30.06F
JEFFERSON CITY CLEAR     72  69  90 CALM      30.05F
ROLLA          CLEAR     72  67  84 SE9       30.06F
SEDALIA        PTCLDY    75  68  78 SE6       30.05F
OSAGE BEACH    CLEAR     72  66  83 E3        30.06F

$$
MOZ051-052-059>065-280600-
...EAST CENTRAL MISSOURI...

CITY           SKY/WX    TMP DP  RH WIND       PRES   REMARKS
ST LOUIS INTL  MOCLDY    75  71  87 SE5       30.06F
SPIRIT OF STL  MOCLDY    71  70  96 CALM      30.05S FOG
ST CHARLES     MOCLDY    72  71  97 CALM      30.05F

$$
MOZ072>076-082>087-097>100-106>115-280600-
...SOUTH CENTRAL AND SOUTHEAST MISSOURI...

CITY           SKY/WX    TMP DP  RH WIND       PRES   REMARKS
CAPE GIRARDEAU MOCLDY    76  72  87 CALM      30.04F
FARMINGTON     MOCLDY    72  70  94 CALM      30.10F
POPLAR BLUFF   PTCLDY    76  71  85 CALM      30.03F HAZE
WEST PLAINS    MOCLDY    71  67  87 CALM      30.09F

$$



USA.gov is the U.S. government's official web portal to all federal, state and local government web resources and services.